Location: Courmery
(48.6153°N, 3.0708°E)
Time: 01:25:23
(UTC+00:00)

Daily predictions for brighter satellites

Satellite Brightness Start Highest point End
(mag) Time Altitude Azimuth Time Altitude Azimuth Time Altitude Azimuth
USA 59 Rocket 3.1 03:34:44 11° E 03:34:44 11° E 03:35:00 10° E
SL-16 R/B 4.1 03:46:48 22° NNE 03:47:53 23° NE 03:52:21 10° E
Cosmos 2082 Rocket 3.6 03:49:32 29° SE 03:51:02 33° ESE 03:56:01 10° NE
COSMOS 2455 3.4 03:58:09 55° ENE 03:58:09 55° ENE 04:03:40 10° SE
ATLAS 3B R/B 4.3 03:59:03 26° N 03:59:44 26° N 04:06:08 10° NE
Cosmos 1980 Rocket 3.3 04:14:14 34° SSE 04:14:14 34° SSE 04:17:16 10° SSE
Cosmos 2098 Rocket 4.4 04:15:58 47° SSE 04:15:58 47° SSE 04:20:00 10° S
Cosmos 2369 3.9 04:16:16 68° ENE 04:16:16 68° ENE 04:21:48 10° SE
COSMO-SKYMED 1 4.3 04:18:21 10° SE 04:21:51 28° ENE 04:22:50 25° NE
Aureole 1 Rocket 4.2 04:20:44 50° NNW 04:22:52 84° ENE 04:30:23 10° SSE
Cosmos 2180 Rocket 4.4 04:23:51 42° N 04:26:11 85° E 04:32:31 10° S
Cosmos 1937 Rocket 4.2 04:25:55 42° NNE 04:26:59 49° ENE 04:31:56 10° SE
Cosmos 372 Rocket 4.0 04:33:37 69° SSE 04:33:37 69° SSE 04:38:05 10° SSE
Cosmos 2333 Rocket 3.5 04:33:56 21° N 04:37:05 36° NE 04:42:20 10° ESE
Cosmos 1606 Rocket 3.7 04:43:12 69° ENE 04:43:17 69° E 04:47:40 10° SSE
Cosmos 2360 Rocket 3.8 04:40:11 16° N 04:43:44 29° NE 04:48:34 10° ESE
Cosmos 2142 Rocket 4.4 04:47:06 49° NW 04:48:38 64° W 04:54:44 10° S
USA 234 3.9 04:49:39 10° ENE 04:55:45 43° N 04:57:47 34° NW
Helios 1A Rocket 3.3 04:52:45 10° SSE 04:55:46 48° E 04:55:46 48° E
SeaSat 1 4.3 04:56:42 10° N 04:58:20 18° N 04:58:20 18° N
SL-4 R/B 2.7 05:03:15 35° NE 05:03:15 35° NE 05:05:27 10° ENE
Cosmos 2219 Rocket 4.0 04:58:07 11° N 05:02:31 26° NE 05:07:11 10° E
ATLAS 5 CENTAUR R/B 3.6 05:05:56 11° NNE 05:05:56 11° NNE 05:06:05 10° NNE
Cosmos 2322 Rocket 3.2 05:01:43 16° NNW 05:05:57 43° NE 05:11:20 10° SE
Cosmos 1726 Rocket 3.4 05:08:07 38° NNW 05:09:44 87° W 05:13:59 10° S
Meteor 2-3 Rocket 3.9 05:05:12 10° S 05:10:54 74° E 05:16:36 10° NNE
Cosmos 489 Rocket 4.4 05:08:38 10° SSW 05:14:57 89° WNW 05:21:16 10° NNE
CZ-4 R/B 3.6 05:10:44 10° NNE 05:15:25 86° WNW 05:20:02 10° SSW
Nadezhda 4 Rocket 3.9 05:09:39 10° SSW 05:15:57 70° WNW 05:22:14 10° N
Cosmos 1428 Rocket 4.4 05:10:49 10° SSW 05:17:02 80° W 05:23:21 10° N
NOSS 2-1 (D) 3.7 05:17:47 44° SW 05:17:47 44° SW 05:22:03 10° SSE
Cosmos 2237 4.2 05:15:45 35° NW 05:18:02 62° WSW 05:23:38 10° SSE
CZ-2C R/B 4.4 05:15:01 10° N 05:16:11 15° NNW 05:16:11 15° NNW
USA 59 Rocket 0.5 05:20:26 38° SW 05:20:26 38° SW 05:24:43 10° SSE
Cosmos 841 Rocket 3.4 05:17:43 10° SSW 05:22:56 73° WNW 05:28:13 10° NNE
COSMOS 2406 3.2 05:17:47 10° SSW 05:23:28 89° ESE 05:29:11 10° NNE
NOSS 2-1 (E) 3.5 05:25:12 46° WSW 05:25:30 47° SW 05:29:56 10° SSE
NOSS 3-1 (C) 4.0 05:21:26 28° NW 05:25:41 66° SW 05:34:26 10° SSE
Cosmos 1833 Rocket 4.3 05:28:01 18° NNW 05:28:01 18° NNW 05:31:00 10° N
Cosmos 1892 Rocket 3.4 05:25:31 10° S 05:29:52 83° W 05:34:18 10° N
Cosmos 2195 Rocket 4.4 05:24:06 10° SSW 05:30:22 79° W 05:36:44 10° N
SL-16 R/B 2.1 05:28:40 20° NNW 05:32:40 81° WSW 05:38:19 10° SSE
Cosmos 2082 Rocket 2.4 05:31:29 21° WSW 05:34:57 46° NW 05:40:22 10° NNE
IRS-1D 3.7 05:37:44 10° N 05:42:30 46° WNW 05:47:19 10° SW
COSMOS 2455 3.6 05:41:19 26° WNW 05:43:25 33° WSW 05:48:40 10° S
Cosmos 1898 Rocket 4.3 05:42:42 27° WNW 05:44:02 31° WSW 05:48:36 10° SSW
NOSS 2-1 (C) 4.3 05:44:49 26° WSW 05:45:29 28° SW 05:49:29 10° S
Meteor 2-20 4.4 05:39:28 10° NNW 05:45:31 64° W 05:51:31 10° S
Orbus 7S? 3.1 05:47:32 31° NNW 05:48:25 45° NNE 05:51:04 10° ESE
Cosmos 405 Rocket 3.9 05:45:32 10° SSE 05:48:33 37° E 05:51:38 10° NNE
ATLAS 3B R/B 4.0 05:46:18 13° NW 05:52:49 38° NNE 05:59:52 10° E
Cosmos-2242 2.9 05:49:53 10° NNW 05:54:06 66° W 05:58:16 10° S
Cosmos 1980 Rocket 4.0 05:56:02 12° WSW 05:56:02 12° WSW 05:57:13 10° WSW
Cosmos 2278 3.7 05:51:02 15° NW 05:55:44 63° WSW 06:01:18 10° SSE
COSMO-SKYMED 1 3.2 05:53:25 10° SSW 05:57:06 31° W 05:59:09 20° NW
Cosmos 1484 Rocket 2.4 05:57:48 10° N 06:01:13 60° WNW 06:04:32 10° SSW
Cosmos 2058 Rocket 3.2 05:56:54 10° NNW 06:01:15 52° W 06:05:31 10° S
Cosmos 1627 Rocket 4.5 05:56:57 10° SSW 06:02:56 57° WNW 06:09:00 10° N
Meteor 2-2 Rocket 4.3 05:58:56 10° NNW 06:04:31 59° W 06:10:09 10° S
Okean 1 3.1 06:03:39 11° NNW 06:07:00 50° W 06:10:27 10° S
Meteor 2-20 Rocket 4.3 06:02:02 10° NNW 06:07:43 59° W 06:13:17 10° S
Cosmos 1937 Rocket 4.5 06:06:02 18° WNW 06:08:32 25° W 06:12:41 10° SSW
ARIANE 5 R/B 3.5 06:08:13 10° NNE 06:13:19 52° E 06:18:25 10° S
Cosmos 2285 Rocket 4.0 06:07:21 10° NNW 06:13:46 84° WSW 06:20:10 10° SSE
ATLAS 2AS CENTAUR R/B 4.3 06:08:32 10° S 06:15:01 40° ESE 06:21:20 10° NE
SL-08 ROCKET BODY 4.4 06:10:29 10° S 06:16:21 88° E 06:22:13 10° N
IRIDIUM 104 4.3 06:12:59 10° S 06:18:12 75° W 06:23:27 10° N
Cosmos 2333 Rocket 2.6 06:16:00 10° NW 06:21:31 47° WSW 06:26:59 10° S
SAR-Lupe-4 4.0 06:20:03 10° NNE 06:23:36 64° ESE 06:27:08 10° S
SMAP 3.1 06:19:54 10° NNE 06:24:36 89° W 06:29:15 10° SSW
IRIDIUM 114 4.3 06:22:12 10° SSW 06:27:21 63° W 06:32:34 10° N
Cosmos 2360 Rocket 2.3 06:22:33 10° NW 06:28:05 60° WSW 06:33:36 10° S
Helios 1A Rocket 4.4 06:27:29 10° WSW 06:28:52 12° W 06:29:20 12° W
Landsat 7 3.8 06:25:51 10° NNE 06:30:33 86° ESE 06:35:12 10° SSW
SAR-Lupe-1 4.5 06:27:48 10° NNE 06:31:26 69° ESE 06:35:00 10° S
NOSS 3-1 (A) 4.3 06:25:11 10° NW 06:32:14 56° WSW 06:40:52 10° SSE
Cosmos 2026 Rocket 4.5 06:27:11 10° SW 06:32:38 34° WNW 06:38:09 10° N
CBERS-1 4.1 06:28:14 10° N 06:33:13 53° WNW 06:38:09 10° SW
IGS 5A 3.9 06:30:22 10° N 06:34:03 36° WNW 06:37:43 10° SW
Cosmos 1814 Rocket 4.0 06:28:55 10° SSW 06:34:08 71° WNW 06:39:27 10° NNE
BREEZE-M DEB (TANK) 2.7 06:34:38 11° W 06:36:11 35° SSW 06:38:43 10° SE
IRIDIUM 103 4.5 06:31:28 10° SSW 06:36:33 52° W 06:41:40 10° N
Cosmos 2237 Rocket 4.0 06:32:15 10° N 06:36:41 23° NE 06:41:04 10° E
USA 234 3.6 06:31:46 10° E 06:38:10 58° NNE 06:44:35 10° NW
SL-4 R/B 1.3 06:36:58 11° WNW 06:40:05 84° SSW 06:43:15 10° ESE
Cosmos 1758 Rocket 3.7 06:36:06 10° SSW 06:40:27 55° WNW 06:44:48 10° N
Cosmos 1733 2.7 06:39:46 10° SW 06:41:18 21° WNW 06:42:50 10° NNW
Cosmos 1743 2.2 06:38:19 10° SSW 06:41:31 61° W 06:44:46 10° N
IRS-1C 4.2 06:37:10 10° NNE 06:42:32 86° ESE 06:47:51 10° SSW
Thor Agena Rocket 3.5 06:40:44 10° N 06:45:44 59° WNW 06:50:40 10° SSW
BREEZE-M DEB (TANK) 3.2 06:43:05 10° W 06:45:56 82° N 06:54:07 10° E
Cosmos 2219 Rocket 2.3 06:41:20 10° NNW 06:46:59 70° WSW 06:52:34 10° SSE
Cosmos 192 4.3 06:42:22 10° NNW 06:47:19 78° WSW 06:52:12 10° SSE
Cosmos 2322 Rocket 2.9 06:44:43 10° NW 06:49:55 37° WSW 06:55:04 10° S
S3M 4.0 06:44:25 10° N 06:50:39 81° W 06:56:47 10° S
USA 229 4.4 06:48:23 10° NW 06:55:38 62° NE 07:03:38 10° ESE
USA 229 DEB 4.4 06:48:29 10° NW 06:55:43 62° NE 07:03:43 10° ESE
Cosmos 2322 4.2 06:50:10 10° NNW 06:55:49 63° ENE 07:01:25 10° SE
